www.pogodaiklimat.ru

Погода и климат >> Архив погоды >> Мексика >> Tapachula City


ПОГОДА в Tapachula City

  • Прогноз погоды в Tapachula City
  • Монитор погоды в Tapachula City
  • Климат города

АРХИВ ПОГОДЫ в Tapachula City

Время (UTC), дата Ветер
(напр.,м/с)
 
Видим.   Явления Облачность Т
(С)
Тd
(С)
f
(%)
Тe
(С)
Тes
(С)
Комфортность P
(гПа)
Po
(гПа)
Тmin
(С)
Tmax
(С)
R
(мм)
R24
(мм)
S
(см)
18 10.12 ЮЗ 1 35 км 1/1 1020 м
[Cu hum]
+31.9 +23.6 62 +43 +58 опасность
перегрева
1014.2 1000.6 +22.0 +33.1
21 10.12 Ю 4 30 км 1/1 1020 м
[Cu hum]
+32.8 +22.0 53 +41 +46 опасность
перегрева
1011.3 997.9
00 11.12 В 1 30 км 1/1 1000 м
[Cu hum]
+28.5 +22.9 72 +38 +38 очень
душно
1012.0 998.7 +22.0 +34.8
03 11.12 СВ 2 15 км ясно +26.2 +22.3 79 +34 +34 очень
душно
1014.7 1001.3
06 11.12 В 1 15 км ясно +24.6 +21.2 81 +31 +31 очень
душно
1015.2 1001.8 +34.8
09 11.12 СВ 1 15 км ясно +23.8 +20.7 83 +30 +30 очень
душно
1013.4 999.9
12 11.12 С 1 20 км ясно +23.0 +19.8 82 +30 +30 очень
душно
1015.1 1001.5 +22.5 +34.8
18 11.12 З 1 30 км 4/4 1000 м
[Cu hum]
+32.2 +23.1 59 +43 +52 опасность
перегрева
1014.5 1001.0 +22.5 +33.2
21 11.12 Ю 2 30 км 6/6 1000 м
[Cu hum]
+32.2 +23.4 60 +43 +46 опасность
перегрева
1012.6 999.2
00 12.12 ЮЗ 1 30 км 9/5 600 м
[Cu hum Ac trans]
+28.5 +24.3 78 +40 +40 очень
душно
1013.2 999.9 +22.5 +33.7
03 12.12 СЗ 1 10 км 5/0 2000 м
[Ac As]
+26.4 +24.5 89 +37 +37 очень
душно
1013.7 1000.4
06 12.12 СЗ 1 10 км 4/0 2000 м
[Ac As]
+25.9 +24.0 89 +36 +36 очень
душно
1014.6 1001.2 +22.5 +33.7
09 12.12 СЗ 2 10 км ясно +25.0 +23.5 91 +34 +34 очень
душно
1012.9 999.5
12 12.12 СВ 2 20 км ясно +23.4 +21.1 87 +31 +31 очень
душно
1013.0 999.5 +22.4 +33.7
15 12.12 СВ 2 30 км ясно +28.2 +21.2 66 +36 +41 очень
душно
1016.2 1002.6
18 12.12 ЮЗ 2 30 км 3/3 1020 м
[Cu med, cong]
+31.6 +22.2 58 +41 +50 опасность
перегрева
1014.6 1001.1 +22.4 +33.0
21 12.12 ЮЗ 3 30 км 4/4 1020 м
[Cu med, cong]
+32.6 +24.0 61 +45 +48 опасность
перегрева
1012.1 998.7
00 13.12 ЮЗ 2 30 км 4/3 1000 м
[Cu med, cong Ac und]
+28.4 +24.1 78 +40 +40 очень
душно
1013.0 999.6 +22.4 +34.6
03 13.12 З 1 15 км 3/0
[Ac und]
+27.2 +23.5 80 +37 +37 очень
душно
1013.0 999.7
06 13.12 ЮЗ 1 15 км ясно +25.8 +23.2 86 +35 +35 очень
душно
1014.4 1001.0 +34.6
12 13.12 Ю 1 10 км слабая морось 4/0
[As op]
+23.3 +22.2 94 +32 +32 очень
душно
1012.5 999.0 0.7
15 13.12 Ю 1 40 км ясно +28.6 +25.1 81 +41 +48 опасность
перегрева
1016.3 1002.7
18 13.12 ЮЗ 3 30 км 5/4 1000 м
[Cu med, cong Ci fib]
+31.1 +24.8 69 +44 +51 опасность
перегрева
1014.6 1001.1 +22.8 +33.4
21 13.12 ЮЗ 1 30 км 5/4 1000 м
[Cu med, cong Ci fib]
+30.7 +25.4 73 +45 +49 опасность
перегрева
1011.7 998.3
00 14.12 С 3 25 км 8/0
[Ac As]
+27.9 +23.4 77 +38 +38 очень
душно
1012.3 998.9 +22.8 +34.3
03 14.12 Ю 1 20 км 5/0
[Ac As]
+26.2 +23.7 86 +36 +36 очень
душно
1014.1 1000.8
09 14.12 В 3 20 км ясно +25.4 +23.9 91 +35 +35 очень
душно
1014.5 1002.0
12 14.12 В 1 20 км 4/0
[Ac As]
+23.9 +21.4 86 +30 +30 очень
душно
1015.0 1001.4 +23.2 +34.3
15 14.12 СЗ 2 35 км ясно +27.8 +21.9 70 +36 +41 очень
душно
1015.8 1002.2
21 14.12 ЮЗ 3 30 км 3/3 1020 м
[Cu med, cong]
+32.0 +23.6 61 +43 +47 опасность
перегрева
1011.6 998.2
00 15.12 ЮЗ 2 25 км 3/3 1000 м
[Cu med, cong]
+27.8 +22.8 74 +37 +37 очень
душно
1012.5 999.2 +23.2 +33.8
03 15.12 СЗ 1 10 км ясно +26.0 +23.2 85 +35 +35 очень
душно
1013.1 999.7
06 15.12 С 1 10 км ясно +25.5 +23.3 88 +34 +34 очень
душно
1015.5 1002.0 +23.2 +33.8
09 15.12 СВ 2 10 км ясно +24.8 +22.9 89 +33 +33 очень
душно
1012.0 998.5
12 15.12 СВ 1 10 км ясно +23.2 +20.6 85 +31 +31 очень
душно
1012.9 999.4 +22.4 +33.8
15 15.12 ЮВ 1 40 км ясно +28.0 +22.2 71 +37 +43 очень
душно
1015.4 1001.8
18 15.12 ЮВ 2 40 км ясно +32.0 +23.9 62 +43 +57 опасность
перегрева
1016.0 1002.4 +22.4 +32.5
21 15.12 Ю 2 30 км 3/3 1020 м
[Cu hum]
+33.2 +24.9 62 +47 +51 опасность
перегрева
1012.1 998.8
00 16.12 З 2 25 км ясно +29.8 +23.7 70 +41 +41 опасность
перегрева
1012.2 998.9 +22.4 +33.2
03 16.12 СВ 2 15 км ясно +26.0 +22.7 82 +34 +34 очень
душно
1014.0 1000.7
06 16.12 СВ 2 15 км ясно +24.8 +21.7 83 +32 +32 очень
душно
1014.9 1001.5 +22.4 +33.2
09 16.12 СВ 1 15 км ясно +24.0 +20.0 78 +29 +29 душно 1013.5 1000.1
12 16.12 СВ 1 25 км 4/0
[Ci]
+22.6 +18.8 79 +28 +28 душно 1014.4 1000.9 +22.2 +33.2
15 16.12 штиль 0 40 км 6/0
[Ci]
+26.3 +21.2 74 +33 +40 очень
душно
1016.6 1003.0
18 16.12 З 2 40 км 8/0
[Ci]
+30.5 +19.8 53 +37 +48 очень
душно
1015.3 1001.8 +22.2 +31.5
21 16.12 СЗ 2 40 км 6/0
[Ci]
+31.3 +21.9 57 +40 +46 очень
душно
1012.6 999.2
00 17.12 С 1 40 км 6/0
[Ci]
+28.5 +20.9 63 +36 +36 очень
душно
1012.6 999.3 +22.2 +33.2
03 17.12 С 1 10 км 6/0
[Ci]
+25.7 +22.5 83 +34 +34 очень
душно
1014.1 1000.7
06 17.12 С 1 10 км 5/0
[Ci]
+24.8 +21.8 83 +32 +32 очень
душно
1015.3 1001.9 +33.2
09 17.12 С 1 10 км 3/0
[Ci]
+24.0 +21.2 84 +30 +30 очень
душно
1014.3 1000.8
12 17.12 В 1 15 км 4/0
[Ci]
+22.8 +18.8 78 +29 +29 очень
душно
1014.6 1001.1 +22.6 +33.2
15 17.12 СВ 2 35 км ясно +26.0 +21.2 75 +33 +38 очень
душно
1015.9 1002.3

 

Местоположение метеостанции Tapachula City (Мексика): широта 14.92 долгота -92.25 высота над уровнем моря 118 м.

В архиве по умолчанию представлена погода в Tapachula City за последнюю неделю. Архивные данные за месяц целиком и за предыдущие месяцы, начиная с января 2011 года, Вы можете получить, выбрав интересующий диапазон дат из раскрывающегося списка и нажав кнопку "Ввод!".


*Определитесь, кто Вы:
робот инопланетянин человек

Внимание! Время в таблицах - всемирное. Для получения местного времени необходимо прибавить поправку, которая в Tapachula City равна -6 ч.

Смотрите также архив погоды в соседних городах и на ближайших метеорологических станциях:

Погода в Huehuetenango (Гватемала) (96 км)
Погода в Comitan (Мексика) (148 км)
Погода в San Jose (Гватемала) (191 км)
Погода в Guatemala (Гватемала) (191 км)
Погода в Sn. Cristobal Las Casas (Мексика) (208 км)
Погода в Tuxtla Gutierrez (Мексика) (224 км)
Погода в Arriaga (Мексика) (229 км)
Погода в Nueva Ocotepeque (Гондурас) (335 км)
Погода в Flores (Гватемала) (337 км)
Погода в Salina Cruz (Мексика) (343 км)

Пояснения к столбцам:

Ветер - указаны скорость ветра в м/с - средняя за 10 мин, порывы в срок и между сроками (в фигурных скобках) и направление, откуда дует ветер: С - северный, СВ - северо-восточный, В - восточный, ЮВ - юго-восточный, Ю - южный, ЮЗ - юго-западный, З - западный, СЗ - северо-западный.
Видимость - горизонтальная дальность видимости в метрах или километрах. При видимости от 1 до 10 км при отсутствии осадков обычно наблюдается дымка, при ухудшении видимости до 1 км и менее - туман. В сухую погоду видимость может ухудшаться дымом, пылью или мглою.
Явления - указаны атмосферные явления, наблюдавшиеся в срок или в последний час перед сроком; фигурными скобками обозначены явления, наблюдавшиеся между сроками (за 1-3 часа до срока); квадратными скобками обозначены град или гололедные отложения с указанием их диаметра в мм.
Облачность - указаны через наклонную черту общая и нижняя облачность в баллах и высота нижней границы облаков в метрах; квадратными скобками обозначены формы облаков: Ci - перистые, Cs - перисто-слоистые, Cc - перисто-кучевые, Ac - высококучевые, As - высокослоистые, Sc - слоисто-кучевые, Ns - слоисто-дождевые, Cu - кучевые, Cb - кучево-дождевые. Подробнее классификацию облаков см. в Атласе облаков (PDF).
T - Температура воздуха - температура, измеренная на высоте 2 м над землей.
Td - Температура точки росы - температура, при понижении до которой содержащийся в воздухе водяной пар достигнет насыщения.
f - Относительная влажность воздуха - влажноcть воздуха, измеренная на высоте 2 м над землей.
Te - Эффективная температура - температура, которую ощущает одетый по сезону человек в тени. Характеристика душности погоды. При расчете учитывается влияние влажности воздуха и скорости ветра на теплоощущения человека.
Tes - Эффективная температура на солнце - температура, которую ощущает человек, с поправкой на солнечный нагрев. Характеристика знойности погоды. Зависит от высоты солнца над горизонтом, облачности и скорости ветра. Ночью, в пасмурную погоду, а также при ветре 12 м/с и более поправка равна нулю.
P - Атмосферное давление - приведенное к уровню моря атмосферное давление.
Po - Атмосферное давление - измеренное на уровне метеостанции атмосферное давление.
Tmin - Минимальная температура - минимум температуры воздуха на высоте 2 м над землей.
Tmax - Максимальная температура - максимум температуры воздуха на высоте 2 м над землей.
R - Количество осадков - Количество выпавших осадков за период времени, мм. При наведении курсора мыши на число - период времени, за который выпало указанное количество осадков.
R24 - Количество осадков - Количество выпавших осадков за 24 часа, мм.
S - Снежный покров - Высота снежного покрова, см. При наведении курсора мыши на число - состояние снежного покрова и степень покрытия местности в баллах.